MST,Max TemperatureF,Mean TemperatureF,Min TemperatureF,Max Dew PointF,MeanDew PointF,Min DewpointF,Max Humidity, Mean Humidity, Min Humidity, Max Sea Level PressureIn, Mean Sea Level PressureIn, Min Sea Level PressureIn, Max VisibilityMiles, Mean VisibilityMiles, Min VisibilityMiles, Max Wind SpeedMPH, Mean Wind SpeedMPH, Max Gust SpeedMPH,PrecipitationIn, CloudCover, Events, WindDirDegrees
2011-12-1,28,17,5,19,12,2,100,73,46,30.31,30.09,29.72,10,10,6,28,12,33,T,7,Snow,208
2011-12-2,31,17,2,17,10,-2,100,72,43,30.24,29.93,29.72,10,9,4,18,5,23,T,4,Snow,176
2011-12-3,17,11,5,14,7,3,92,78,64,29.96,29.83,29.65,10,4,0,20,7,23,0.12,8,Fog-Snow,204
2011-12-4,14,7,-1,5,0,-10,91,67,42,30.12,29.93,29.83,10,6,2,18,7,23,0.01,7,Snow,309
2011-12-5,8,-1,-10,1,-6,-14,90,73,55,30.26,30.08,29.90,10,8,0,16,4,20,0.02,7,Snow,183
2011-12-6,19,2,-16,5,-5,-21,87,68,49,30.43,30.26,29.95,10,10,7,20,10,25,0.00,2,,43
2011-12-7,35,19,3,13,6,1,87,61,35,30.35,30.17,29.93,10,10,10,18,7,26,0.00,0,,42
2011-12-8,26,14,1,15,8,0,80,66,51,30.18,30.04,29.87,10,10,4,22,7,28,T,3,Snow,19
2011-12-9,30,15,0,9,4,-2,76,58,39,30.40,30.25,30.10,10,10,10,17,7,22,0.00,1,,47
2011-12-10,36,20,3,11,5,-2,88,55,22,30.44,30.25,30.12,10,10,10,13,5,15,0.00,0,,83
2011-12-11,33,18,2,7,3,-2,83,58,32,30.08,29.99,29.88,10,10,10,17,6,22,0.00,0,,28
2011-12-12,28,14,0,14,6,-2,88,63,37,30.10,29.99,29.90,10,9,2,20,4,23,T,4,Snow,110
2011-12-13,25,18,11,20,15,9,96,89,81,30.01,29.90,29.80,10,7,1,15,3,17,0.03,6,Snow,110
2011-12-14,24,16,7,16,11,3,92,75,57,30.14,29.91,29.72,10,6,1,20,8,26,0.07,8,Snow,26
2011-12-15,30,14,-2,9,3,-5,95,67,39,30.27,30.17,30.06,10,10,10,12,5,14,0.00,1,,53
2011-12-16,32,16,0,8,1,-10,91,59,26,30.51,30.35,30.20,10,10,10,16,7,21,0.00,0,,38
2011-12-17,49,27,5,7,1,-13,58,36,14,30.50,30.35,30.18,10,10,9,10,4,14,0.00,0,,63
2011-12-18,44,27,10,16,6,-11,68,48,27,30.22,30.01,29.77,10,10,10,14,6,15,0.00,0,,51
2011-12-19,25,20,14,16,14,10,92,76,60,30.00,29.88,29.70,10,8,2,20,7,24,0.01,5,Snow,193
2011-12-20,32,18,4,14,7,-4,96,62,28,30.02,29.91,29.77,10,10,6,14,6,18,T,1,Snow,48
2011-12-21,27,16,4,15,5,-7,74,62,50,29.89,29.79,29.68,10,8,1,20,9,24,0.03,6,Snow,29
2011-12-22,11,0,-11,9,1,-16,92,72,52,30.46,30.02,29.83,10,6,1,18,7,29,0.07,6,Snow,184
2011-12-23,26,8,-10,-1,-6,-15,83,56,29,30.60,30.47,30.35,10,10,10,16,6,21,0.00,0,,38
2011-12-24,33,17,0,1,-5,-11,86,50,14,30.61,30.46,30.36,10,10,10,18,7,23,0.00,0,,42
2011-12-25,41,22,3,11,1,-9,67,45,23,30.58,30.37,30.13,10,10,10,10,2,12,0.00,0,,91
2011-12-26,33,22,10,10,5,-2,67,49,30,30.22,30.11,30.03,10,10,10,26,10,33,0.00,0,,30
2011-12-27,34,23,12,4,-2,-10,67,43,19,30.22,30.09,29.96,10,10,10,23,10,32,0.00,1,,14
2011-12-28,34,21,8,22,7,-4,73,50,26,30.26,30.18,30.05,10,10,10,23,11,30,0.00,3,,23
2011-12-29,34,30,26,25,21,14,85,72,58,30.17,29.97,29.77,10,6,1,38,18,54,0.04,7,Rain-Snow,339
2011-12-30,40,32,24,20,15,7,63,50,36,30.03,29.92,29.70,10,10,10,22,9,31,0.00,4,,41
2011-12-31,39,23,7,13,2,-15,80,53,25,30.45,29.94,29.53,10,6,0,41,19,61,T,5,Fog-Snow,334